FW2142 Weather Reports


time (UTC)temp
C
wind
direction
speed
KPH
gust
KPH
rain 1hr
cm
rain 24hr
cm
rain mn
cm
humidity
%
barometer
mb
20260505022559 21 176 3.2 6.4 0.00 0.00 0.00 64 1009.2
20260505022059 21 169 3.2 8.0 0.00 0.00 0.00 64 1009.1
20260505021559 21 188 3.2 8.0 0.00 0.00 0.00 64 1009.1
20260505021059 21 163 3.2 8.0 0.00 0.00 0.00 64 1009.0
20260505020559 21 155 1.6 8.0 0.00 0.00 0.00 63 1009.0
20260505020059 21 154 3.2 8.0 0.00 0.00 0.00 63 1008.9
20260505015558 21 196 3.2 9.7 0.00 0.00 0.00 62 1008.8
20260505015058 21 132 3.2 14.5 0.00 0.00 0.00 62 1008.8
20260505014606 21 165 4.8 14.5 0.00 0.00 0.00 62 1008.8
20260505014057 21 165 3.2 8.0 0.00 0.00 0.00 62 1008.7
20260505013559 21 171 3.2 8.0 0.00 0.00 0.00 62 1008.7
20260505013058 21 172 1.6 8.0 0.00 0.00 0.00 62 1008.7
20260505012556 22 156 3.2 4.8 0.00 0.00 0.00 61 1008.7
20260505012055 22 177 1.6 4.8 0.00 0.00 0.00 60 1008.8
20260505011555 22 171 3.2 6.4 0.00 0.00 0.00 60 1008.7
20260505011054 22 155 3.2 6.4 0.00 0.00 0.00 60 1008.7
20260505010557 22 188 1.6 9.7 0.00 0.00 0.00 60 1008.8
20260505010115 22 173 3.2 9.7 0.00 0.00 0.00 59 1008.7
20260505005554 22 190 3.2 9.7 0.00 0.00 0.00 59 1008.5
20260505005054 22 107 3.2 9.7 0.00 0.00 0.00 59 1008.6
20260505004554 22 191 3.2 6.4 0.00 0.00 0.00 58 1008.8
20260505004053 22 180 1.6 8.0 0.00 0.00 0.00 58 1008.7
20260505003554 22 175 3.2 14.5 0.00 0.00 0.00 58 1008.7
20260505003057 23 190 3.2 14.5 0.00 0.00 0.00 58 1008.7
20260505002553 23 192 3.2 9.7 0.00 0.00 0.00 57 1008.7
20260505002053 23 190 4.8 9.7 0.00 0.00 0.00 57 1008.6
20260505001553 23 190 3.2 8.0 0.00 0.00 0.00 57 1008.7
20260505001055 23 200 3.2 8.0 0.00 0.00 0.00 56 1008.8
20260505000552 23 200 1.6 8.0 0.00 0.00 0.00 56 1008.8
20260505000053 23 201 1.6 8.0 0.00 0.00 0.00 56 1008.7
20260504235552 23 190 1.6 12.9 0.00 0.00 0.00 56 1008.6
20260504235052 23 262 3.2 14.5 0.00 0.00 0.00 56 1008.7
20260504234552 23 224 1.6 14.5 0.00 0.00 0.00 56 1008.6
20260504234052 23 185 3.2 8.0 0.00 0.00 0.00 56 1008.8
20260504233554 23 140 3.2 11.3 0.00 0.00 0.00 55 1008.7
20260504233052 23 186 4.8 12.9 0.00 0.00 0.00 54 1008.7
20260504232550 23 84 4.8 14.5 0.00 0.00 0.00 54 1008.9
20260504232049 24 122 4.8 14.5 0.00 0.00 0.00 54 1008.9
20260504231548 24 179 6.4 12.9 0.00 0.00 0.00 54 1009.1
20260504231047 24 175 4.8 12.9 0.00 0.00 0.00 54 1009.2
20260504230551 24 174 3.2 11.3 0.00 0.00 0.00 54 1009.3
20260504230049 25 92 3.2 11.3 0.00 0.00 0.00 54 1009.3
20260504225547 25 165 0.0 9.7 0.00 0.00 0.00 54 1009.3
20260504225046 25 155 4.8 11.3 0.00 0.00 0.00 52 1009.4
20260504224546 25 186 3.2 11.3 0.00 0.00 0.00 52 1009.4
20260504224046 25 200 3.2 9.7 0.00 0.00 0.00 52 1009.4
20260504223549 26 155 3.2 9.7 0.00 0.00 0.00 50 1009.4
20260504223058 26 188 3.2 9.7 0.00 0.00 0.00 51 1009.3
20260504222547 26 192 3.2 14.5 0.00 0.00 0.00 50 1009.4
20260504222044 26 183 4.8 19.3 0.00 0.00 0.00 50 1009.4
20260504221556 26 202 4.8 19.3 0.00 0.00 0.00 50 1009.5
20260504221043 26 131 3.2 11.3 0.00 0.00 0.00 52 1009.6
20260504220542 26 184 3.2 14.5 0.00 0.00 0.00 51 1009.6
20260504220043 26 190 4.8 14.5 0.00 0.00 0.00 50 1009.7
20260504215542 26 213 6.4 22.5 0.00 0.00 0.00 49 1009.7
20260504215043 26 185 8.0 22.5 0.00 0.00 0.00 48 1009.7
20260504214541 26 102 6.4 17.7 0.00 0.00 0.00 49 1009.8
20260504214041 26 176 6.4 12.9 0.00 0.00 0.00 49 1009.7
20260504213540 26 198 4.8 16.1 0.00 0.00 0.00 50 1009.8
20260504213056 26 151 4.8 16.1 0.00 0.00 0.00 48 1009.9
20260504212539 26 139 4.8 16.1 0.00 0.00 0.00 49 1010.0
20260504212040 26 198 4.8 16.1 0.00 0.00 0.00 48 1010.1
20260504211541 26 197 6.4 16.1 0.00 0.00 0.00 48 1010.2
20260504211037 26 204 6.4 11.3 0.00 0.00 0.00 49 1010.3
20260504210538 26 159 3.2 16.1 0.00 0.00 0.00 48 1010.4
20260504210036 27 178 6.4 19.3 0.00 0.00 0.00 48 1010.4
20260504205535 27 196 6.4 19.3 0.00 0.00 0.00 47 1010.5
20260504205035 27 126 4.8 27.4 0.00 0.00 0.00 46 1010.5
20260504204534 27 188 11.3 29.0 0.00 0.00 0.00 45 1010.5
20260504204034 27 189 6.4 16.1 0.00 0.00 0.00 45 1010.6
20260504203533 27 250 4.8 16.1 0.00 0.00 0.00 46 1010.5
20260504203044 27 198 3.2 16.1 0.00 0.00 0.00 46 1010.6
20260504202533 27 210 6.4 16.1 0.00 0.00 0.00 46 1010.8
20260504202030 27 286 6.4 19.3 0.00 0.00 0.00 46 1010.8
20260504201529 27 184 3.2 19.3 0.00 0.00 0.00 46 1010.9
20260504201028 27 173 6.4 17.7 0.00 0.00 0.00 45 1011.2
20260504200527 27 78 4.8 14.5 0.00 0.00 0.00 46 1011.3
20260504200026 27 217 6.4 17.7 0.00 0.00 0.00 47 1011.3
20260504195527 27 192 9.7 20.9 0.00 0.00 0.00 46 1011.4
20260504195025 27 200 6.4 20.9 0.00 0.00 0.00 45 1011.4
20260504194531 27 152 4.8 16.1 0.00 0.00 0.00 47 1011.6
20260504194024 27 187 4.8 16.1 0.00 0.00 0.00 47 1011.7
20260504193527 27 188 4.8 12.9 0.00 0.00 0.00 47 1011.7
20260504193023 27 232 3.2 12.9 0.00 0.00 0.00 49 1011.8
20260504192521 27 203 4.8 16.1 0.00 0.00 0.00 47 1011.8
20260504192023 27 207 3.2 16.1 0.00 0.00 0.00 47 1012.0
20260504191531 27 228 8.0 14.5 0.00 0.00 0.00 45 1012.1
20260504191021 27 209 6.4 14.5 0.00 0.00 0.00 46 1012.1
20260504190519 27 187 4.8 12.9 0.00 0.00 0.00 46 1012.2
20260504190017 26 205 3.2 12.9 0.00 0.00 0.00 48 1012.2
20260504185516 26 322 3.2 14.5 0.00 0.00 0.00 47 1012.1
20260504185016 26 180 4.8 14.5 0.00 0.00 0.00 47 1012.2
20260504184518 26 331 3.2 19.3 0.00 0.00 0.00 48 1012.3
20260504184016 26 241 8.0 19.3 0.00 0.00 0.00 47 1012.3
20260504183514 26 241 3.2 17.7 0.00 0.00 0.00 47 1012.4
20260504183014 26 160 8.0 16.1 0.00 0.00 0.00 45 1012.5
20260504182517 26 152 4.8 16.1 0.00 0.00 0.00 47 1012.5
20260504182015 26 285 4.8 16.1 0.00 0.00 0.00 45 1012.5
20260504181517 26 188 4.8 16.1 0.00 0.00 0.00 47 1012.5
20260504181011 26 191 4.8 12.9 0.00 0.00 0.00 47 1012.5
20260504180510 26 182 4.8 17.7 0.00 0.00 0.00 48 1012.7
20260504180015 26 157 4.8 17.7 0.00 0.00 0.00 48 1012.7
20260504175510 26 142 3.2 14.5 0.00 0.00 0.00 49 1012.8
20260504175009 26 178 3.2 11.3 0.00 0.00 0.00 49 1012.8
20260504174508 26 242 4.8 11.3 0.00 0.00 0.00 49 1012.8
20260504174007 26 348 4.8 17.7 0.00 0.00 0.00 48 1012.9
20260504173505 25 159 4.8 17.7 0.00 0.00 0.00 48 1013.1
20260504173005 25 186 3.2 16.1 0.00 0.00 0.00 48 1013.2
20260504172504 25 163 6.4 16.1 0.00 0.00 0.00 48 1013.3
20260504172003 25 208 4.8 20.9 0.00 0.00 0.00 48 1013.3
20260504171503 25 196 8.0 20.9 0.00 0.00 0.00 47 1013.2
20260504171003 25 236 4.8 24.1 0.00 0.00 0.00 48 1013.4
20260504170501 25 207 8.0 24.1 0.00 0.00 0.00 47 1013.4
20260504151036 20 178 8.0 24.1 0.00 0.00 0.00 64 1014.3
20260504150536 20 201 3.2 14.5 0.00 0.00 0.00 66 1014.4
20260504141033 18 144 4.8 12.9 0.00 0.00 0.00 70 1014.7
20260504140530 18 190 4.8 12.9 0.00 0.00 0.00 70 1014.7
20260504130526 15 183 3.2 8.0 0.00 0.00 0.00 82 1014.4
20260504110517 16 189 3.2 8.0 0.00 0.00 0.00 74 1013.6
20260504100514 16 192 3.2 6.4 0.00 0.00 0.00 75 1014.0
20260504082001 16 188 3.2 6.4 0.00 0.00 0.00 73 1014.3
20260504081501 17 188 3.2 6.4 0.00 0.00 0.00 72 1014.3
20260504081002 17 188 1.6 6.4 0.00 0.00 0.00 72 1014.3
20260504080600 17 188 1.6 6.4 0.00 0.00 0.00 72 1014.3
20260504080116 17 187 3.2 6.4 0.00 0.00 0.00 72 1014.4
20260504050536 19 203 4.8 12.9 0.00 0.00 0.00 65 1015.1
20260504045536 19 175 4.8 11.3 0.00 0.00 0.00 64 1015.2
20260504045034 19 214 4.8 9.7 0.00 0.00 0.00 64 1015.3
20260504044539 19 178 4.8 9.7 0.00 0.00 0.00 64 1015.3
20260504044034 19 185 4.8 9.7 0.00 0.00 0.00 64 1015.3
20260504043534 20 201 4.8 9.7 0.00 0.00 0.00 64 1015.3
20260504043036 20 199 4.8 11.3 0.00 0.00 0.00 64 1015.3
20260504042534 20 200 4.8 12.9 0.00 0.00 0.00 64 1015.4
20260504042033 20 198 4.8 12.9 0.00 0.00 0.00 63 1015.4
20260504041533 20 192 4.8 9.7 0.00 0.00 0.00 64 1015.5
20260504041033 20 168 4.8 11.3 0.00 0.00 0.00 63 1015.5
20260504040533 20 188 4.8 11.3 0.00 0.00 0.00 63 1015.5
20260504040057 20 184 4.8 11.3 0.00 0.00 0.00 63 1015.5
20260504035533 20 176 4.8 9.7 0.00 0.00 0.00 63 1015.7
20260504035032 20 169 4.8 16.1 0.00 0.00 0.00 63 1015.6
20260504034533 20 196 4.8 16.1 0.00 0.00 0.00 63 1015.7
20260504034032 20 187 4.8 9.7 0.00 0.00 0.00 62 1015.8
20260504033531 20 192 4.8 9.7 0.00 0.00 0.00 62 1015.7
20260504033034 20 183 6.4 11.3 0.00 0.00 0.00 62 1015.8
20260504032534 20 178 4.8 11.3 0.00 0.00 0.00 62 1015.7
20260504032032 20 189 4.8 11.3 0.00 0.00 0.00 62 1015.7
20260504031533 20 175 4.8 11.3 0.00 0.00 0.00 62 1015.7
20260504031030 20 199 6.4 11.3 0.00 0.00 0.00 61 1015.7
20260504030533 20 186 4.8 9.7 0.00 0.00 0.00 62 1015.6
20260504030030 20 192 4.8 11.3 0.00 0.00 0.00 61 1015.7
20260504025531 20 188 4.8 11.3 0.00 0.00 0.00 61 1015.7
20260504025029 20 182 4.8 16.1 0.00 0.00 0.00 61 1015.6
20260504024554 20 146 4.8 16.1 0.00 0.00 0.00 60 1015.7
20260504024033 21 172 4.8 9.7 0.00 0.00 0.00 60 1015.6
20260504023528 21 181 4.8 9.7 0.00 0.00 0.00 60 1015.6
20260504023029 21 194 4.8 11.3 0.00 0.00 0.00 60 1015.5